Vorticity
10 10 2 5 9 5 7 11 12 8 7 10 8 5 7 7 9 8 5 7 9 8 8 11 12 10 7 5 3 4 7 8 7 7 8 8 8 9 9 8 6 5 5 6 6 6 7 7 6 7 8 8 7 6 7 6 6 6 7 9 9 9 9
9 9 6 8 8 5 8 9 6 8 11 13 11 7 6 5 6 6 5 6 8 7 6 9 11 11 9 7 4 4 6 7 7 7 8 9 8 8 9 9 6 5 5 6 6 7 6 6 6 7 7 7 7 7 7 7 6 7 8 9 9 9 9
9 7 8 9 5 7 10 3 7 21 19 10 11 12 8 7 6 6 6 6 7 8 6 7 10 11 10 9 5 3 4 5 6 7 8 9 9 8 9 10 7 6 6 6 5 5 6 5 6 7 7 7 7 6 7 7 6 7 8 9 8 8 9
7 5 6 8 6 10 9 -4 -1 14 14 10 12 11 7 7 6 5 7 8 6 7 8 8 9 10 10 10 6 3 3 4 4 5 8 8 8 8 9 10 9 7 5 5 5 4 5 6 5 6 7 7 6 6 7 8 7 8 9 9 8 8 9
5 4 5 8 7 8 8 0 -3 -0 3 7 10 9 7 7 8 4 5 10 9 10 15 12 9 11 11 11 9 4 2 4 4 5 7 8 8 8 9 10 9 8 6 4 4 4 5 6 6 6 7 7 7 6 7 9 9 9 9 8 9 8 9
4 4 5 7 8 7 7 7 6 3 5 8 15 24 18 7 7 6 6 13 11 9 12 8 6 11 12 12 11 7 3 3 4 5 6 7 8 7 8 10 9 8 6 4 4 5 5 6 6 5 6 6 7 7 7 8 9 9 9 8 8 8 9
2 4 6 6 6 7 7 8 8 6 8 8 11 22 20 9 10 11 10 10 5 5 8 5 7 10 9 10 11 8 6 4 3 4 6 7 8 8 8 9 9 7 7 6 5 5 5 6 6 5 5 6 7 7 8 8 8 8 8 8 8 7 8
3 3 5 6 6 6 5 6 8 6 9 8 1 7 20 26 22 14 10 6 2 7 9 7 11 10 6 9 10 8 7 6 3 2 4 6 9 10 8 8 9 8 7 6 5 5 6 6 6 5 5 6 6 7 7 7 8 8 8 8 8 7 7
5 3 3 5 7 7 5 4 5 6 10 11 4 3 11 19 16 10 10 8 4 5 5 6 12 10 8 11 10 8 8 7 6 3 2 4 7 10 10 8 9 8 7 7 5 5 6 6 6 5 5 6 7 7 7 6 7 8 8 8 7 7 7
4 4 3 4 5 7 7 3 -0 2 9 12 10 3 -3 5 16 15 15 17 14 9 7 9 12 8 9 12 10 11 11 9 10 6 2 3 5 7 10 10 10 9 8 8 7 6 6 6 6 5 5 6 6 7 6 6 7 8 9 9 7 7 7
3 4 5 5 5 5 7 6 1 -1 4 8 11 4 -8 -0 14 10 6 14 19 15 6 4 8 7 9 11 8 10 12 10 9 8 6 4 4 6 7 9 10 10 9 8 7 7 7 7 7 5 4 5 6 7 6 5 7 8 8 9 8 7 7
3 4 6 6 5 6 7 10 10 7 5 5 7 7 1 4 11 5 -1 3 13 17 8 1 5 5 7 11 8 7 12 10 7 8 8 6 5 6 7 7 8 9 10 10 9 8 8 8 7 5 4 4 5 7 6 6 7 8 9 9 8 7 7
2 3 6 7 5 5 5 9 13 12 10 6 3 4 5 7 11 7 -0 0 10 18 15 10 9 5 4 9 8 7 10 10 9 11 10 8 8 6 5 7 8 8 9 11 11 10 8 9 8 6 4 5 5 6 6 6 7 7 8 9 8 8 7
6 3 6 9 7 5 4 6 8 5 4 6 4 2 1 3 7 6 2 3 9 13 13 13 14 10 5 3 5 8 8 7 11 13 9 8 8 5 4 6 7 7 7 9 12 12 10 9 9 7 5 5 5 6 6 5 5 7 8 10 9 9 8
9 6 6 8 8 9 6 4 5 2 -1 2 2 2 1 1 3 5 3 2 5 8 11 13 16 16 12 5 3 6 6 5 11 12 7 7 8 7 6 5 5 7 7 7 9 11 11 11 10 8 7 6 5 6 6 5 5 5 6 9 11 10 9
9 7 6 5 5 8 8 5 4 3 2 2 2 2 2 0 1 3 4 3 1 4 8 11 14 15 14 12 7 5 4 6 12 13 10 10 10 9 8 5 4 5 6 7 8 8 10 11 11 10 8 7 6 6 6 6 4 4 5 7 10 11 10
10 7 6 5 3 4 5 5 3 2 4 6 6 5 4 2 2 2 3 4 2 2 3 6 9 9 10 13 11 7 6 7 10 10 8 10 12 13 11 8 6 5 5 5 6 7 8 9 10 11 10 8 7 7 7 7 5 3 3 5 8 9 10
10 9 8 5 4 4 3 3 3 1 2 5 6 7 5 4 3 2 2 2 2 2 1 0 3 5 6 9 10 10 9 7 7 5 3 6 10 13 13 10 8 7 6 5 6 6 7 8 9 10 10 10 9 8 8 8 6 4 2 3 5 7 9
9 11 12 7 4 5 4 4 5 2 1 3 4 6 6 5 4 2 2 2 1 1 2 1 0 1 3 5 8 9 9 8 8 6 4 4 5 7 9 11 11 10 7 5 6 7 5 6 7 8 9 10 10 9 10 8 7 5 3 2 2 3 5
8 10 13 12 8 6 5 5 6 5 3 2 3 4 5 5 5 4 3 2 1 1 2 3 2 1 2 5 7 7 7 6 7 7 7 7 7 6 6 8 13 15 13 8 6 7 6 5 6 6 6 9 9 9 10 10 10 7 4 2 2 1 2
9 9 9 12 10 8 8 8 7 7 5 4 3 4 5 5 5 5 4 4 3 1 1 2 4 3 2 3 5 5 6 5 5 6 7 7 9 8 4 5 11 14 15 11 6 6 7 6 7 7 5 6 8 9 10 9 10 10 8 4 3 1 1
9 9 8 9 9 8 9 10 10 10 9 8 6 5 5 6 5 5 5 5 5 4 2 1 2 2 1 2 3 3 5 6 4 5 6 6 9 10 6 8 11 10 11 13 11 9 7 5 7 9 7 6 5 6 8 9 9 10 10 8 6 4 3
7 8 8 7 7 8 8 8 10 11 11 11 11 10 9 8 7 6 6 6 7 7 6 3 2 4 5 6 6 7 9 10 8 7 7 6 8 9 7 9 10 8 11 18 18 12 7 6 9 9 9 10 9 5 6 7 7 8 8 9 9 7 6
8 7 8 7 7 8 7 7 10 10 11 11 11 13 14 12 11 10 9 8 8 8 8 7 5 4 4 4 6 6 6 6 6 5 6 7 8 6 5 8 8 5 7 12 15 14 9 8 13 13 9 9 11 11 9 6 6 7 7 7 7 8 8
7 6 7 8 7 6 5 8 9 9 9 9 9 11 14 13 14 14 12 12 10 7 8 8 7 6 4 1 2 2 1 2 4 2 -2 2 6 6 5 8 8 7 7 8 9 12 10 9 11 12 11 11 11 11 12 10 8 7 6 6 6 7 7
10 8 8 8 7 5 5 8 8 7 8 8 7 9 10 10 12 13 13 14 13 11 9 8 7 8 7 5 3 2 1 2 8 10 6 1 2 6 10 11 7 6 9 11 9 6 7 11 11 6 9 15 15 12 11 12 11 9 7 7 7 5 6
12 10 11 11 8 5 5 6 6 7 8 6 6 7 8 7 8 9 10 12 13 13 12 10 9 9 9 8 7 6 4 -1 -2 3 7 8 6 6 9 11 10 8 8 9 9 4 4 12 13 4 4 10 13 13 13 13 14 12 7 5 8 8 6
6 6 9 10 9 8 8 6 5 6 8 6 5 6 6 6 7 7 7 8 9 11 12 12 11 11 12 11 8 7 8 5 -0 -4 -2 3 7 7 5 5 8 12 11 9 9 8 4 7 10 7 6 5 6 11 15 16 19 21 15 7 5 7 7
5 4 5 6 7 8 7 6 6 7 7 7 6 5 6 6 6 7 7 6 6 7 9 10 10 11 11 11 10 7 6 6 7 6 1 -3 -2 1 3 4 4 5 6 8 12 13 9 6 6 7 8 6 3 2 5 8 12 19 20 16 10 7 7
10 9 7 6 6 6 5 5 6 6 8 8 7 6 6 6 5 6 7 7 6 5 6 7 8 9 9 9 9 9 8 6 6 8 8 6 2 -1 0 4 4 2 1 3 5 9 11 10 8 6 6 9 8 3 0 0 3 11 16 16 14 13 10
12 12 11 10 9 7 6 5 5 4 6 8 8 6 6 6 6 6 6 7 7 7 6 5 6 7 7 8 7 6 7 7 6 6 7 8 9 7 4 4 3 3 5 5 1 1 6 9 11 8 6 8 10 9 6 2 -1 3 10 15 17 17 16
13 13 13 14 13 10 8 7 5 4 5 7 8 7 6 5 5 5 6 7 7 7 7 6 6 6 5 6 7 6 6 6 6 7 6 5 6 8 9 9 6 2 3 5 5 6 6 5 8 10 9 7 4 2 6 12 11 6 4 7 13 15 17
16 16 15 15 16 16 13 10 8 6 5 5 8 8 7 7 6 5 5 6 7 7 7 7 7 6 5 5 5 5 6 5 4 4 4 4 4 4 5 8 10 8 5 3 3 5 4 4 5 6 7 10 6 -3 -4 8 21 24 12 -0 2 10 12
13 15 15 15 16 18 18 16 14 11 9 7 7 8 8 7 7 7 6 5 6 7 7 7 7 7 7 6 5 4 4 5 4 4 3 2 3 4 3 4 5 8 9 8 5 3 1 1 5 4 2 6 10 7 -0 -4 7 24 24 6 -0 7 10
6 8 9 11 12 13 15 17 18 17 15 12 10 10 9 8 8 8 7 6 6 6 7 7 8 7 7 7 7 6 5 3 3 4 4 4 3 2 2 3 3 4 6 7 9 9 6 4 6 7 5 2 3 6 8 4 5 16 22 14 5 3 6
6 5 6 7 8 8 9 11 14 16 17 17 15 14 13 11 10 8 8 8 7 6 6 6 7 8 8 8 7 7 7 6 4 3 3 3 4 3 2 1 2 3 4 4 5 7 9 8 7 9 10 7 4 2 3 5 8 9 12 15 14 8 5
11 9 8 8 8 8 7 7 9 10 11 13 15 15 15 15 14 12 11 11 9 8 7 6 6 6 7 8 8 7 7 7 6 5 3 2 2 3 3 3 2 2 3 4 3 4 6 6 6 8 10 9 9 8 4 2 6 8 9 12 14 11 8
18 18 15 14 14 14 13 12 11 10 9 9 10 11 12 13 14 14 14 13 12 11 10 9 8 6 5 6 7 7 7 8 7 6 5 4 2 2 2 2 3 3 3 3 3 3 5 5 4 6 9 9 9 11 9 5 6 10 10 8 7 10 12
Height
5901 5902 5903 5905 5907 5908 5908 5909 5911 5913 5915 5918 5920 5922 5923 5924 5924 5924 5925 5926 5926 5927 5928 5929 5931 5932 5933 5935 5937 5938 5939 5940 5942 5943 5944 5945 5947 5948 5949 5951 5953 5954 5956 5957 5957 5958 5959 5960 5962 5963 5964 5965 5965 5966 5967 5967 5968 5968 5969 5969 5970 5970 5970
5900 5900 5902 5904 5905 5907 5909 5910 5911 5912 5914 5917 5919 5921 5921 5922 5923 5924 5925 5925 5925 5925 5926 5927 5929 5931 5932 5934 5936 5937 5938 5939 5940 5942 5943 5944 5945 5947 5948 5950 5952 5953 5955 5956 5957 5958 5959 5960 5961 5963 5964 5964 5965 5966 5967 5967 5968 5968 5969 5969 5970 5971 5971
5899 5899 5901 5903 5904 5906 5909 5910 5912 5912 5913 5915 5918 5920 5920 5920 5921 5921 5923 5925 5925 5925 5925 5926 5928 5930 5932 5933 5935 5936 5938 5938 5939 5940 5942 5943 5944 5946 5947 5949 5951 5952 5954 5955 5956 5957 5958 5959 5961 5962 5963 5964 5965 5966 5966 5967 5968 5968 5969 5969 5970 5971 5971
5898 5899 5899 5900 5901 5903 5905 5907 5909 5910 5911 5914 5916 5917 5917 5918 5918 5919 5921 5922 5923 5924 5925 5926 5928 5930 5931 5932 5934 5936 5937 5938 5939 5940 5941 5942 5944 5945 5947 5948 5950 5951 5953 5954 5955 5956 5957 5959 5960 5961 5962 5963 5964 5965 5966 5967 5967 5968 5969 5969 5970 5970 5971
5897 5898 5899 5898 5898 5899 5901 5902 5904 5905 5908 5911 5913 5913 5914 5915 5916 5918 5919 5921 5922 5923 5924 5926 5928 5929 5930 5932 5934 5936 5937 5938 5939 5940 5941 5942 5943 5944 5946 5947 5949 5950 5952 5953 5954 5955 5956 5958 5959 5961 5962 5963 5964 5965 5966 5966 5967 5968 5968 5969 5970 5970 5971
5895 5897 5898 5897 5896 5898 5900 5901 5903 5905 5906 5909 5910 5911 5913 5915 5916 5917 5918 5919 5921 5922 5923 5925 5927 5928 5930 5932 5934 5936 5937 5939 5940 5941 5941 5943 5944 5944 5945 5947 5948 5950 5951 5952 5953 5954 5955 5957 5958 5960 5961 5962 5963 5964 5965 5965 5966 5967 5967 5968 5969 5970 5970
5894 5895 5896 5896 5896 5898 5900 5901 5903 5906 5907 5907 5907 5909 5912 5915 5916 5917 5917 5918 5919 5921 5922 5924 5925 5926 5928 5930 5932 5934 5936 5938 5940 5941 5942 5943 5944 5945 5946 5946 5948 5949 5950 5951 5952 5953 5955 5956 5957 5958 5959 5961 5962 5963 5964 5965 5965 5966 5967 5968 5968 5969 5970
5892 5893 5894 5895 5896 5897 5899 5901 5903 5905 5906 5906 5906 5908 5910 5912 5914 5917 5918 5917 5917 5918 5920 5921 5923 5925 5926 5928 5929 5931 5933 5936 5938 5940 5941 5943 5944 5945 5946 5946 5947 5948 5950 5951 5952 5952 5954 5955 5956 5957 5958 5960 5961 5962 5963 5964 5965 5966 5966 5967 5968 5968 5969
5890 5891 5893 5894 5895 5896 5898 5899 5901 5902 5904 5905 5906 5907 5908 5909 5911 5914 5915 5915 5914 5916 5918 5920 5922 5924 5925 5926 5928 5930 5932 5934 5935 5937 5939 5940 5942 5944 5946 5946 5947 5948 5949 5950 5951 5952 5953 5954 5955 5956 5957 5959 5960 5961 5962 5963 5964 5965 5965 5966 5967 5968 5968
5888 5890 5891 5892 5893 5894 5896 5897 5899 5900 5901 5903 5904 5905 5907 5909 5910 5911 5911 5912 5913 5915 5916 5918 5920 5922 5923 5924 5927 5929 5932 5933 5934 5935 5937 5938 5940 5942 5944 5945 5946 5947 5948 5949 5950 5951 5952 5953 5954 5955 5956 5958 5959 5960 5961 5962 5963 5964 5965 5966 5966 5967 5968
5886 5888 5889 5890 5892 5893 5894 5895 5896 5898 5900 5900 5901 5902 5905 5907 5908 5907 5908 5911 5913 5914 5914 5916 5918 5921 5922 5923 5925 5928 5930 5931 5933 5934 5935 5937 5938 5940 5942 5944 5945 5946 5947 5948 5949 5950 5951 5952 5953 5954 5955 5956 5958 5959 5960 5961 5962 5963 5964 5965 5966 5966 5967
5884 5886 5887 5889 5890 5891 5892 5893 5894 5896 5898 5899 5899 5899 5901 5902 5903 5903 5904 5906 5910 5912 5912 5913 5915 5918 5921 5922 5924 5926 5928 5929 5930 5932 5933 5935 5937 5938 5940 5942 5943 5945 5946 5947 5948 5949 5951 5952 5953 5954 5954 5955 5957 5958 5959 5960 5961 5962 5963 5963 5964 5965 5966
5881 5883 5885 5886 5888 5889 5890 5891 5892 5893 5895 5896 5897 5898 5899 5900 5901 5902 5902 5902 5905 5909 5912 5913 5913 5915 5919 5921 5922 5924 5926 5926 5928 5929 5931 5933 5934 5936 5938 5940 5942 5943 5944 5945 5947 5948 5949 5951 5952 5953 5954 5955 5956 5957 5958 5959 5960 5961 5962 5962 5963 5964 5965
5877 5879 5881 5883 5885 5887 5888 5889 5890 5891 5893 5894 5895 5896 5897 5899 5900 5901 5901 5901 5902 5906 5910 5913 5914 5915 5917 5919 5920 5921 5923 5924 5925 5927 5928 5930 5932 5933 5936 5938 5940 5942 5943 5944 5946 5947 5948 5949 5951 5952 5953 5954 5955 5956 5957 5958 5959 5960 5960 5961 5962 5962 5963
5873 5876 5877 5880 5882 5884 5886 5887 5888 5889 5890 5892 5893 5894 5895 5897 5898 5899 5900 5901 5901 5903 5907 5910 5912 5914 5915 5917 5918 5919 5921 5922 5923 5924 5926 5928 5929 5931 5933 5935 5937 5939 5941 5942 5944 5945 5946 5948 5949 5951 5952 5953 5954 5955 5956 5957 5958 5959 5959 5960 5960 5961 5962
5869 5871 5873 5875 5878 5880 5882 5883 5884 5886 5888 5889 5890 5892 5893 5895 5896 5897 5898 5899 5900 5901 5904 5906 5909 5911 5912 5914 5916 5917 5918 5920 5921 5922 5923 5925 5926 5928 5930 5932 5934 5936 5938 5940 5942 5943 5944 5946 5948 5949 5950 5952 5953 5954 5955 5956 5957 5958 5958 5959 5959 5960 5960
5865 5867 5869 5871 5873 5875 5877 5879 5881 5882 5884 5886 5887 5889 5891 5892 5893 5895 5896 5897 5898 5900 5901 5903 5906 5908 5910 5911 5912 5913 5915 5916 5918 5920 5921 5923 5924 5925 5926 5928 5930 5932 5934 5937 5939 5940 5942 5944 5945 5947 5948 5950 5951 5952 5954 5955 5956 5957 5957 5958 5958 5959 5959
5861 5863 5865 5867 5869 5871 5873 5875 5877 5879 5881 5883 5884 5886 5887 5889 5890 5892 5893 5894 5896 5898 5899 5900 5902 5905 5907 5909 5910 5911 5912 5914 5915 5917 5919 5921 5922 5923 5924 5925 5926 5928 5930 5932 5935 5936 5939 5941 5943 5944 5946 5947 5949 5950 5952 5953 5954 5955 5956 5956 5957 5958 5958
5857 5859 5861 5864 5865 5867 5870 5871 5873 5875 5877 5879 5881 5883 5884 5885 5887 5888 5890 5891 5893 5895 5896 5898 5899 5901 5903 5906 5907 5909 5910 5911 5912 5913 5915 5917 5919 5920 5922 5924 5925 5926 5927 5928 5930 5932 5934 5937 5939 5941 5942 5944 5946 5947 5949 5950 5952 5953 5954 5955 5955 5956 5957
5852 5855 5857 5859 5861 5863 5865 5868 5870 5872 5874 5876 5878 5880 5881 5883 5884 5885 5887 5888 5890 5891 5893 5895 5897 5899 5900 5902 5904 5905 5907 5907 5907 5910 5912 5913 5914 5915 5918 5921 5924 5925 5925 5925 5926 5927 5930 5932 5934 5936 5938 5940 5943 5944 5946 5947 5949 5951 5952 5952 5953 5954 5955
5847 5850 5852 5855 5857 5859 5861 5863 5866 5868 5869 5872 5874 5876 5878 5880 5881 5883 5884 5885 5886 5888 5890 5891 5893 5895 5897 5898 5899 5901 5902 5903 5904 5906 5907 5908 5910 5911 5913 5916 5919 5921 5923 5923 5923 5924 5925 5927 5929 5932 5934 5937 5938 5940 5942 5944 5945 5947 5949 5949 5950 5951 5952
5842 5845 5847 5850 5852 5854 5856 5858 5861 5863 5865 5867 5869 5871 5873 5875 5877 5879 5881 5882 5883 5885 5886 5888 5889 5891 5893 5894 5895 5896 5898 5899 5900 5902 5902 5904 5907 5909 5910 5911 5913 5916 5919 5921 5923 5923 5923 5925 5927 5929 5931 5933 5935 5937 5939 5940 5942 5944 5945 5946 5947 5948 5950
5836 5839 5842 5844 5847 5848 5851 5853 5855 5857 5859 5861 5864 5866 5868 5871 5873 5875 5877 5879 5880 5881 5883 5884 5886 5888 5889 5890 5891 5893 5894 5896 5896 5896 5898 5901 5903 5906 5907 5908 5910 5913 5917 5920 5923 5925 5926 5928 5929 5930 5930 5932 5933 5935 5937 5937 5938 5940 5941 5942 5943 5944 5947
5831 5834 5836 5839 5841 5843 5846 5848 5849 5852 5854 5856 5858 5860 5863 5865 5867 5869 5872 5874 5876 5877 5878 5880 5882 5884 5885 5886 5888 5890 5891 5892 5892 5892 5894 5897 5899 5900 5902 5905 5909 5912 5914 5916 5919 5922 5923 5925 5927 5928 5929 5930 5931 5933 5935 5935 5936 5936 5937 5938 5939 5941 5943
5825 5828 5830 5832 5835 5838 5840 5841 5843 5846 5848 5850 5853 5855 5857 5859 5861 5864 5866 5868 5871 5872 5874 5876 5877 5879 5880 5882 5884 5886 5887 5887 5888 5888 5890 5892 5894 5895 5898 5903 5906 5908 5909 5911 5914 5916 5917 5917 5919 5921 5922 5924 5926 5928 5930 5932 5933 5934 5935 5935 5936 5937 5939
5819 5822 5824 5826 5829 5832 5834 5835 5837 5840 5842 5845 5847 5849 5851 5854 5856 5858 5860 5862 5865 5867 5869 5871 5872 5874 5876 5877 5879 5881 5882 5883 5883 5884 5885 5888 5890 5892 5896 5900 5902 5903 5904 5907 5910 5911 5912 5913 5915 5917 5918 5919 5921 5923 5925 5926 5928 5929 5931 5932 5932 5933 5934
5813 5815 5817 5820 5823 5825 5826 5829 5832 5834 5836 5839 5841 5842 5845 5848 5850 5852 5854 5856 5859 5861 5863 5865 5866 5868 5870 5871 5873 5875 5877 5877 5878 5879 5881 5883 5885 5889 5892 5895 5898 5899 5899 5901 5903 5906 5907 5909 5911 5913 5914 5915 5917 5919 5921 5922 5923 5925 5926 5927 5928 5929 5930
5807 5809 5811 5814 5817 5818 5820 5823 5826 5828 5830 5833 5834 5836 5839 5841 5844 5846 5848 5850 5852 5855 5857 5859 5861 5863 5865 5866 5868 5869 5871 5872 5873 5874 5875 5877 5880 5883 5886 5889 5892 5893 5894 5896 5898 5900 5903 5904 5906 5909 5910 5912 5913 5915 5916 5918 5919 5920 5921 5922 5923 5923 5924
5800 5803 5805 5808 5810 5812 5815 5817 5819 5821 5823 5825 5828 5830 5832 5835 5837 5840 5842 5844 5846 5848 5851 5853 5855 5857 5859 5861 5862 5863 5865 5867 5868 5869 5871 5872 5874 5878 5881 5884 5886 5888 5890 5893 5894 5896 5899 5901 5903 5904 5906 5908 5909 5910 5911 5912 5913 5913 5915 5916 5918 5918 5919
5793 5795 5798 5800 5803 5806 5809 5811 5813 5815 5816 5818 5821 5823 5825 5828 5831 5833 5835 5837 5839 5842 5845 5847 5849 5851 5853 5854 5856 5858 5859 5861 5862 5864 5866 5867 5869 5872 5875 5878 5880 5882 5885 5888 5890 5892 5894 5896 5898 5899 5902 5903 5904 5905 5905 5906 5906 5906 5908 5910 5912 5913 5914
5787 5789 5791 5793 5795 5798 5801 5804 5806 5808 5809 5811 5813 5816 5819 5821 5824 5826 5828 5830 5832 5835 5838 5840 5842 5845 5847 5848 5850 5852 5854 5855 5857 5858 5860 5862 5864 5866 5869 5872 5875 5876 5879 5882 5885 5887 5890 5891 5892 5894 5896 5897 5897 5897 5898 5898 5899 5901 5904 5906 5907 5908 5909
5781 5783 5784 5786 5788 5790 5792 5795 5798 5800 5802 5804 5805 5808 5811 5814 5817 5820 5822 5823 5825 5828 5830 5833 5836 5838 5840 5842 5844 5846 5848 5849 5851 5852 5854 5856 5858 5861 5863 5866 5869 5871 5873 5876 5879 5881 5884 5886 5886 5888 5889 5890 5890 5892 5893 5895 5898 5901 5904 5904 5904 5904 5904
5774 5776 5778 5779 5780 5783 5785 5787 5789 5792 5794 5797 5798 5800 5803 5806 5809 5812 5814 5816 5818 5820 5823 5826 5829 5831 5834 5836 5838 5840 5841 5843 5845 5847 5848 5850 5853 5855 5858 5860 5863 5865 5868 5870 5873 5875 5877 5879 5881 5881 5883 5884 5886 5888 5891 5893 5895 5898 5899 5898 5899 5900 5900
5766 5768 5770 5771 5773 5776 5778 5779 5781 5783 5785 5788 5790 5792 5795 5798 5801 5803 5806 5809 5810 5812 5815 5818 5821 5824 5827 5829 5831 5833 5835 5837 5839 5841 5843 5844 5846 5849 5852 5855 5858 5860 5862 5865 5867 5869 5871 5873 5874 5876 5878 5880 5882 5885 5888 5889 5890 5891 5891 5891 5893 5894 5894
5759 5761 5762 5764 5767 5769 5771 5772 5774 5776 5778 5780 5782 5784 5787 5789 5792 5794 5797 5799 5802 5804 5807 5810 5813 5816 5819 5822 5824 5826 5829 5831 5833 5835 5837 5839 5840 5843 5846 5849 5852 5854 5857 5859 5861 5864 5865 5867 5868 5870 5871 5874 5877 5880 5883 5884 5884 5884 5886 5887 5888 5889 5889
5752 5753 5755 5757 5759 5761 5763 5765 5766 5768 5770 5772 5773 5775 5778 5780 5782 5784 5787 5790 5792 5795 5798 5801 5805 5808 5811 5814 5816 5819 5821 5823 5826 5828 5830 5833 5835 5836 5839 5842 5845 5848 5851 5854 5856 5858 5860 5861 5863 5864 5866 5869 5872 5875 5878 5880 5880 5879 5881 5882 5883 5884 5885
5744 5746 5747 5749 5751 5753 5755 5756 5758 5760 5762 5764 5765 5767 5769 5771 5773 5774 5777 5779 5782 5785 5789 5792 5796 5800 5803 5805 5808 5810 5813 5815 5818 5821 5823 5826 5828 5830 5832 5835 5838 5841 5844 5847 5849 5852 5854 5855 5858 5859 5861 5864 5867 5869 5872 5874 5875 5875 5875 5877 5878 5879 5879
5736 5738 5739 5740 5742 5744 5746 5748 5750 5752 5753 5755 5757 5758 5760 5762 5764 5765 5766 5769 5771 5775 5778 5782 5786 5790 5794 5796 5799 5802 5804 5807 5810 5813 5815 5818 5821 5823 5825 5828 5830 5833 5836 5839 5842 5845 5848 5850 5852 5854 5856 5858 5861 5864 5866 5868 5869 5870 5870 5871 5872 5873 5873